Dewpoint
4 4 3 3 2 1 1 0 1 1 1 1 0 0 1 1 2 3 5 5 5 6 7 6 6 6 5
3 3 3 2 2 1 0 -0 -1 -1 -0 0 0 0 0 0 1 1 1 4 5 5 5 5 5 4 3
2 2 2 1 1 -0 -1 -2 -2 -3 -4 -3 -2 -1 0 1 0 0 1 1 1 2 3 3 3 3 3
1 0 -0 -2 -4 -7 -8 -12 -15 -19 -21 -21 -20 -13 -7 -3 -1 -1 -0 -0 0 1 1 1 2 2 2
-3 -8 -15 -17 -18 -21 -23 -23 -26 -27 -20 -20 -22 -24 -25 -24 -17 -7 -3 -1 -1 -1 -1 -1 -0 -0 -0
-30 -25 -25 -21 -20 -23 -25 -26 -25 -22 -21 -26 -28 -27 -25 -25 -28 -29 -28 -25 -13 -3 -2 -2 -2 -1 -1
-29 -26 -23 -23 -23 -25 -26 -26 -27 -25 -23 -26 -26 -24 -24 -24 -23 -22 -24 -27 -29 -29 -28 -24 -18 -14 -10
-29 -28 -27 -28 -28 -27 -27 -24 -24 -22 -20 -23 -21 -19 -18 -18 -17 -17 -16 -17 -18 -20 -21 -24 -27 -27 -26
-30 -30 -30 -30 -30 -29 -29 -27 -26 -22 -20 -16 -17 -16 -16 -16 -15 -15 -15 -15 -15 -15 -15 -15 -14 -15 -15
-27 -27 -28 -28 -28 -27 -27 -26 -25 -21 -16 -16 -16 -16 -15 -16 -14 -15 -15 -15 -15 -14 -14 -14 -14 -14 -13
-25 -26 -27 -26 -25 -25 -24 -23 -20 -17 -16 -15 -15 -15 -15 -15 -14 -14 -14 -13 -13 -13 -13 -13 -13 -13 -13
-23 -27 -28 -28 -27 -25 -24 -22 -22 -20 -18 -17 -16 -15 -15 -16 -16 -15 -14 -14 -14 -13 -13 -13 -12 -12 -12
-24 -26 -26 -26 -27 -27 -26 -26 -26 -25 -24 -22 -20 -18 -16 -17 -18 -18 -18 -17 -16 -13 -14 -13 -13 -12 -12
-20 -22 -24 -25 -26 -26 -26 -26 -26 -25 -25 -25 -24 -22 -20 -20 -19 -18 -16 -15 -14 -13 -12 -13 -13 -13 -12
-19 -20 -21 -22 -24 -24 -24 -24 -23 -23 -22 -21 -20 -19 -18 -17 -15 -14 -12 -11 -11 -11 -11 -11 -11 -11 -11
-18 -19 -20 -20 -21 -21 -21 -21 -21 -20 -20 -19 -18 -17 -15 -13 -12 -12 -11 -11 -11 -10 -10 -11 -12 -12 -11
-18 -18 -18 -18 -18 -19 -19 -19 -18 -18 -17 -16 -15 -14 -13 -11 -11 -10 -11 -11 -11 -11 -11 -11 -12 -13 -13
Wind_Speed
17 16 15 11 11 11 12 10 7 8 8 9 9 8 5 4 3 2 6 5 4 9 18 24 28 26 25
14 14 12 11 10 10 10 9 8 8 8 8 9 9 7 4 3 2 4 7 8 15 16 18 19 17 16
13 12 10 7 8 9 9 9 9 9 9 9 9 9 9 9 8 7 7 6 8 10 12 13 14 14 15
9 9 7 7 7 8 8 10 10 10 11 10 9 9 10 9 10 10 11 11 12 15 15 15 16 16 16
9 8 7 7 9 8 9 10 9 9 10 8 8 9 9 9 10 11 11 12 14 12 14 15 16 18 18
9 9 8 8 8 9 8 9 7 7 8 9 7 7 7 7 8 9 10 12 13 14 19 20 20 17 16
7 7 7 7 9 8 8 8 7 6 6 4 3 4 5 5 4 5 5 6 9 13 15 17 18 19 19
5 6 7 7 7 7 6 6 6 4 3 2 2 3 5 6 5 5 4 4 5 5 6 9 12 14 16
3 4 5 6 6 6 4 4 5 5 4 2 2 4 6 5 4 4 4 5 5 6 8 9 8 10 10
3 4 4 5 4 4 4 3 4 5 2 4 4 4 4 3 3 8 8 8 9 10 11 11 11 13 13
4 4 4 4 4 5 5 5 6 7 9 7 7 7 6 8 6 10 7 6 9 10 10 11 12 14 16
5 5 6 5 5 6 7 8 8 9 11 11 11 10 10 11 10 7 8 11 10 11 11 12 14 16 17
7 6 6 7 7 8 9 9 9 9 9 10 11 11 11 12 15 13 13 9 10 6 9 13 16 17 18
8 8 7 7 9 9 9 10 9 7 9 9 9 9 11 12 14 15 12 11 12 14 14 14 15 17 18
10 10 9 9 8 10 10 10 10 9 7 9 10 10 13 15 17 15 14 13 11 15 17 17 15 13 12
12 12 11 11 11 11 12 12 12 11 11 11 12 13 15 17 15 14 14 15 13 14 15 20 22 17 15
14 14 13 12 13 13 13 14 14 14 13 14 14 15 18 22 22 18 16 12 14 17 19 20 24 22 19
Wind_Direction
255 260 274 271 281 292 301 305 310 301 299 305 310 311 279 281 256 224 96 123 176 167 173 177 199 215 206
248 256 259 263 275 284 288 291 292 293 293 300 302 297 289 254 271 271 240 191 168 163 180 185 190 198 214
247 261 263 260 266 274 279 283 287 293 293 289 287 287 281 274 263 262 254 247 237 234 232 234 239 246 248
253 258 265 259 268 274 279 284 287 292 289 288 286 280 278 277 266 260 254 247 245 240 241 243 243 240 242
262 268 267 272 279 279 280 279 285 282 280 289 289 285 282 273 267 264 258 254 254 247 257 258 258 259 257
258 262 271 276 283 288 287 285 293 278 279 293 288 294 299 295 291 278 265 258 255 249 245 252 262 260 258
259 262 266 280 287 293 292 289 286 286 291 299 302 311 307 313 319 311 293 264 254 251 252 253 255 257 259
261 271 278 283 285 288 289 288 286 286 297 292 297 304 304 304 300 297 299 290 282 271 262 256 255 256 257
292 287 292 297 299 289 292 277 274 271 287 296 316 312 298 289 289 297 301 298 289 285 284 281 272 261 261
302 302 304 309 312 291 278 268 273 294 259 306 316 328 307 268 231 285 287 280 275 276 276 277 277 279 276
301 303 304 298 292 285 284 281 281 278 284 293 298 306 289 284 276 290 289 281 284 281 279 278 274 268 267
299 307 306 302 290 286 288 288 288 286 287 295 296 297 296 295 298 290 296 294 290 277 272 270 269 269 268
299 308 307 301 298 291 292 291 293 298 295 293 292 290 291 296 301 307 312 310 290 256 281 271 267 268 264
291 295 294 290 290 294 295 295 296 296 297 295 294 289 287 293 294 301 311 303 297 295 288 282 275 277 280
286 287 287 289 288 287 287 285 291 292 289 290 288 285 285 286 286 295 299 294 290 288 289 285 282 286 285
279 279 280 282 284 284 285 287 289 291 292 289 286 287 287 288 289 296 296 298 284 282 292 295 290 290 283
275 277 277 279 279 281 282 283 285 286 285 284 285 289 291 293 300 300 299 295 293 289 291 291 290 294 288
Height
1513 1513 1513 1512 1512 1512 1512 1509 1510 1510 1509 1509 1507 1505 1505 1504 1504 1504 1503 1504 1504 1505 1506 1509 1513 1518 1520
1510 1509 1509 1509 1507 1508 1507 1507 1507 1506 1506 1506 1505 1503 1502 1502 1503 1503 1503 1504 1505 1507 1508 1509 1512 1515 1517
1505 1507 1506 1505 1505 1505 1503 1504 1505 1503 1503 1503 1502 1501 1500 1500 1501 1502 1502 1503 1503 1505 1507 1509 1511 1512 1514
1501 1503 1503 1503 1503 1503 1501 1501 1502 1501 1500 1499 1499 1498 1498 1498 1498 1499 1499 1500 1501 1502 1504 1505 1507 1509 1511
1497 1499 1499 1500 1500 1500 1499 1498 1499 1498 1498 1497 1496 1495 1495 1495 1495 1496 1496 1497 1497 1498 1500 1501 1502 1504 1505
1494 1496 1494 1495 1497 1496 1496 1496 1496 1496 1496 1494 1493 1492 1492 1492 1492 1492 1493 1493 1493 1494 1496 1497 1497 1498 1500
1492 1492 1492 1491 1494 1493 1494 1493 1493 1494 1493 1491 1490 1490 1490 1490 1489 1489 1490 1490 1490 1490 1491 1492 1493 1494 1495
1489 1490 1489 1488 1490 1491 1491 1491 1491 1491 1491 1490 1489 1488 1488 1487 1487 1487 1487 1487 1487 1487 1487 1488 1488 1489 1490
1487 1488 1487 1486 1487 1489 1489 1489 1489 1489 1489 1488 1488 1487 1486 1485 1485 1485 1485 1485 1485 1485 1485 1485 1485 1485 1486
1486 1486 1485 1484 1485 1487 1486 1487 1487 1487 1487 1488 1486 1485 1484 1483 1483 1483 1483 1482 1483 1482 1482 1482 1482 1482 1482
1484 1484 1484 1483 1484 1485 1484 1484 1485 1485 1484 1484 1483 1483 1483 1481 1481 1480 1480 1480 1479 1479 1478 1478 1478 1478 1477
1482 1481 1481 1481 1482 1482 1482 1481 1482 1482 1481 1480 1480 1480 1479 1478 1477 1477 1477 1476 1475 1475 1475 1474 1474 1473 1473
1480 1479 1479 1478 1479 1479 1478 1478 1478 1478 1478 1477 1476 1476 1475 1474 1472 1472 1472 1472 1470 1470 1471 1470 1469 1469 1468
1477 1476 1476 1476 1476 1476 1476 1475 1475 1476 1474 1473 1472 1472 1471 1471 1469 1468 1469 1468 1467 1466 1464 1464 1464 1463 1462
1474 1473 1473 1473 1473 1473 1473 1472 1472 1472 1471 1470 1469 1469 1468 1467 1465 1465 1464 1463 1462 1461 1459 1459 1459 1458 1457
1471 1470 1470 1469 1469 1469 1469 1468 1467 1467 1467 1466 1465 1464 1463 1462 1461 1459 1459 1458 1457 1456 1455 1453 1450 1452 1451
1466 1466 1465 1465 1464 1464 1464 1463 1463 1462 1462 1461 1461 1460 1458 1456 1455 1454 1453 1453 1452 1451 1449 1448 1444 1443 1443